Weather History for KDUJ - September, 2013

Change the Weather History Date:

Friday, September 6, 2013

  Actual Average Record
Temperature  
Mean Temperature 57 °F 63 °F  
Max Temperature 72 °F 74 °F 87 °F (1998)
Min Temperature 41 °F 53 °F 37 °F (1962)
Degree Days  
Heating Degree Days 8 3  
Month to date heating degree days 20 16  
Since 1 July heating degree days 58 78  
Cooling Degree Days 0 2  
Month to date cooling degree days 9 12  
Year to date cooling degree days 495 343  
Growing Degree Days 6 (Base 50)    
Moisture  
Dew Point 38 °F    
Average Humidity 54    
Maximum Humidity 89    
Minimum Humidity 18    
Precipitation  
Precipitation 0.00 in 0.12 in 0.88 in (1990)
Month to date precipitation 0.02 0.76  
Sea Level Pressure  
Sea Level Pressure 30.23 in    
Wind  
Wind Speed 1 mph (ENE)    
Max Wind Speed 8 mph    
Max Gust Speed 13 mph    
Visibility 10 miles    
Events      
T = Trace of Precipitation, MM = Missing Value Source: NWS Daily Summary

Daily Weather History Graph

Daily Weather History Graph

Search for Another Location

Airport or City:

Trip Planner

Search our weather history database for the weather conditions in past years. The results will help you decide how hot, cold, wet, or windy it might be!

Date:

Astronomy

Sep. 06, 2013 Rise Set
Actual Time 6:47 AM EDT 7:39 PM EDT
Civil Twilight 6:19 AM EDT 8:07 PM EDT
Nautical Twilight 5:45 AM EDT 8:40 PM EDT
Astronomical Twilight 5:11 AM EDT 9:15 PM EDT
Moon 7:59 AM EDT (9/6) 8:01 PM EDT (9/6)
Length of Visible Light 13h 48m
Length of Day
12h 52m
New Moon, 1% of the Moon is Illuminated
Sep 6
New Moon
Sep 12
First Quarter
Sep 19
Full
Sep 26
Last Quarter
Oct 4
New

Hourly Weather History & Observations

Time (EDT) Temp. Windchill Dew Point Humidity Pressure Visibility Wind Dir Wind Speed Gust Speed Precip Events Conditions
12:56 AM 50.0 °F - 41.0 °F 71% 30.23 in 10.0 mi North 3.5 mph - N/A   Clear
1:56 AM 46.9 °F - 41.0 °F 80% 30.24 in 10.0 mi East 3.5 mph - N/A   Clear
2:56 AM 46.0 °F 44.8 °F 41.0 °F 83% 30.25 in 10.0 mi East 3.5 mph - N/A   Clear
3:56 AM 45.0 °F - 39.9 °F 82% 30.25 in 10.0 mi Calm Calm - N/A   Clear
4:56 AM 43.0 °F 40.3 °F 39.0 °F 86% 30.26 in 10.0 mi East 4.6 mph - N/A   Clear
5:56 AM 44.1 °F - 39.9 °F 85% 30.27 in 10.0 mi Calm Calm - N/A   Clear
6:56 AM 41.0 °F - 37.9 °F 89% 30.28 in 8.0 mi Calm Calm - N/A   Clear
7:56 AM 46.9 °F - 41.0 °F 80% 30.29 in 9.0 mi East 3.5 mph - N/A   Clear
8:56 AM 51.1 °F - 42.1 °F 71% 30.30 in 10.0 mi Calm Calm - N/A   Clear
9:56 AM 55.9 °F - 39.0 °F 53% 30.30 in 10.0 mi ESE 3.5 mph - N/A   Clear
10:56 AM 57.9 °F - 37.0 °F 46% 30.30 in 10.0 mi Calm Calm - N/A   Clear
11:56 AM 62.1 °F - 34.0 °F 35% 30.29 in 10.0 mi NW 4.6 mph - N/A   Clear
12:56 PM 64.9 °F - 33.1 °F 31% 30.27 in 10.0 mi Variable 5.8 mph - N/A   Clear
1:56 PM 66.0 °F - 30.0 °F 26% 30.25 in 10.0 mi Calm Calm - N/A   Clear
2:56 PM 66.9 °F - 28.0 °F 23% 30.22 in 10.0 mi Variable 3.5 mph - N/A   Clear
3:56 PM 70.0 °F - 25.0 °F 18% 30.21 in 10.0 mi Calm Calm - N/A   Clear
4:56 PM 70.0 °F - 32.0 °F 25% 30.19 in 10.0 mi Calm Calm - N/A   Clear
5:56 PM 69.1 °F - 34.0 °F 27% 30.19 in 10.0 mi Calm Calm - N/A   Clear
6:56 PM 64.9 °F - 45.0 °F 48% 30.19 in 10.0 mi Calm Calm - N/A   Clear
7:56 PM 57.9 °F - 46.0 °F 65% 30.18 in 10.0 mi Calm Calm - N/A   Clear
8:56 PM 57.0 °F - 41.0 °F 55% 30.19 in 10.0 mi Calm Calm - N/A   Clear
9:56 PM 55.0 °F - 39.9 °F 57% 30.17 in 10.0 mi Calm Calm - N/A   Clear
10:56 PM 55.0 °F - 41.0 °F 59% 30.16 in 10.0 mi Calm Calm - N/A   Clear
11:56 PM 55.0 °F - 43.0 °F 64% 30.15 in 10.0 mi Calm Calm - N/A   Clear